When you browse on this site, cookies collect data to enhance your experience and personalize the content and advertising you see.
Visit our Privacy Policy to learn more. By continuing to use the site, you agree to this use of cookies and data.
  • In Latvia
  • List of Countries
  • For 7 days
  • Water Temperature
  • Weather Map
  • Weather Widgets
  • user-avatar
    Login

    Hourly Weather Gorki

    Today, 26 August, Monday

    Time Temperature Precipitation Wind Pressure Humidity
    00:00 +13°C° 0 mm 1 mps 754 mmHg 91%
    01:00 +12°C° 0 mm 1 mps 754 mmHg 92%
    02:00 +12°C° 0 mm 1 mps 754 mmHg 93%
    03:00 +12°C° 0 mm 1 mps 754 mmHg 93%
    04:00 +12°C° 0 mm 1 mps 754 mmHg 94%
    05:00 +11°C° 0 mm 1 mps 754 mmHg 94%
    06:00 +13°C° 0 mm 1 mps 754 mmHg 87%
    07:00 +14°C° 0 mm 0 mps 754 mmHg 81%
    08:00 +16°C° 0 mm 0 mps 755 mmHg 75%
    09:00 +20°C° 0 mm 1 mps 754 mmHg 70%
    10:00 +21°C° 0 mm 1 mps 754 mmHg 64%
    11:00 +22°C° 0 mm 1 mps 754 mmHg 59%
    12:00 +23°C° 0 mm 1 mps 753 mmHg 57%
    13:00 +23°C° 0 mm 2 mps 753 mmHg 56%
    14:00 +23°C° 0 mm 2 mps 753 mmHg 54%
    15:00 +23°C° 0 mm 2 mps 752 mmHg 58%
    16:00 +23°C° 0 mm 2 mps 752 mmHg 62%
    17:00 +22°C° 0 mm 1 mps 751 mmHg 67%
    18:00 +20°C° 0 mm 1 mps 751 mmHg 72%
    19:00 +19°C° 0 mm 1 mps 751 mmHg 76%
    20:00 +16°C° 0 mm 1 mps 751 mmHg 81%
    21:00 +15°C° 0 mm 2 mps 751 mmHg 82%
    22:00 +15°C° 0 mm 2 mps 751 mmHg 84%
    23:00 +15°C° 0 mm 2 mps 750 mmHg 85%

    Tomorrow, 27 August, Tuesday

    Time Temperature Precipitation Wind Pressure Humidity
    00:00 +15°C° 0 mm 2 mps 750 mmHg 86%
    01:00 +14°C° 0 mm 2 mps 750 mmHg 87%
    02:00 +14°C° 0 mm 2 mps 750 mmHg 88%
    03:00 +13°C° 0 mm 3 mps 749 mmHg 88%
    04:00 +13°C° 0 mm 3 mps 749 mmHg 88%
    05:00 +14°C° 0 mm 3 mps 748 mmHg 88%
    06:00 +15°C° 0 mm 4 mps 748 mmHg 86%
    07:00 +17°C° 0 mm 4 mps 748 mmHg 85%
    08:00 +18°C° 0 mm 4 mps 748 mmHg 83%
    09:00 +19°C° 0.2 mm 5 mps 748 mmHg 78%
    10:00 +21°C° 0.2 mm 5 mps 748 mmHg 73%
    11:00 +22°C° 0.2 mm 5 mps 748 mmHg 68%
    12:00 +22°C° 0.1 mm 5 mps 748 mmHg 64%
    13:00 +22°C° 0.1 mm 6 mps 748 mmHg 61%
    14:00 +23°C° 0.1 mm 6 mps 748 mmHg 57%
    15:00 +22°C° 0 mm 5 mps 748 mmHg 60%
    16:00 +21°C° 0 mm 4 mps 748 mmHg 63%
    17:00 +20°C° 0 mm 3 mps 748 mmHg 66%
    18:00 +18°C° 0 mm 3 mps 748 mmHg 70%
    19:00 +17°C° 0 mm 3 mps 748 mmHg 73%
    20:00 +14°C° 0 mm 3 mps 749 mmHg 77%
    21:00 +14°C° 0 mm 3 mps 749 mmHg 80%
    22:00 +13°C° 0 mm 3 mps 749 mmHg 83%
    23:00 +12°C° 0 mm 3 mps 749 mmHg 86%

    Day after tomorrow, 28 August, Wednesday

    Time Temperature Precipitation Wind Pressure Humidity
    00:00 +13°C° 0 mm 2 mps 749 mmHg 88%
    01:00 +12°C° 0 mm 2 mps 750 mmHg 90%
    02:00 +10°C° 0 mm 2 mps 750 mmHg 93%
    03:00 +10°C° 0 mm 2 mps 750 mmHg 93%
    04:00 +9°C° 0 mm 2 mps 750 mmHg 93%
    05:00 +9°C° 0 mm 3 mps 750 mmHg 93%
    06:00 +10°C° 0 mm 3 mps 751 mmHg 86%
    07:00 +12°C° 0 mm 4 mps 751 mmHg 79%
    08:00 +13°C° 0 mm 4 mps 751 mmHg 72%
    09:00 +14°C° 0 mm 4 mps 751 mmHg 66%
    10:00 +15°C° 0 mm 4 mps 751 mmHg 60%
    11:00 +17°C° 0 mm 4 mps 751 mmHg 54%
    12:00 +17°C° 0 mm 4 mps 751 mmHg 51%
    13:00 +18°C° 0 mm 4 mps 751 mmHg 49%
    14:00 +18°C° 0 mm 4 mps 751 mmHg 46%
    15:00 +17°C° 0 mm 3 mps 751 mmHg 50%
    16:00 +17°C° 0 mm 3 mps 751 mmHg 54%
    17:00 +16°C° 0 mm 3 mps 751 mmHg 57%
    18:00 +14°C° 0 mm 2 mps 752 mmHg 61%
    19:00 +13°C° 0 mm 2 mps 752 mmHg 64%
    20:00 +10°C° 0 mm 2 mps 752 mmHg 67%
    21:00 +9°C° 0 mm 2 mps 752 mmHg 68%
    22:00 +8°C° 0 mm 2 mps 752 mmHg 70%
    23:00 +8°C° 0 mm 2 mps 753 mmHg 72%

    29 August, Thursday

    Time Temperature Precipitation Wind Pressure Humidity
    00:00 +7°C° 0 mm 2 mps 753 mmHg 74%
    01:00 +8°C° 0 mm 1 mps 753 mmHg 75%
    02:00 +7°C° 0 mm 1 mps 753 mmHg 76%
    03:00 +7°C° 0 mm 1 mps 753 mmHg 77%
    04:00 +7°C° 0 mm 1 mps 753 mmHg 77%
    05:00 +7°C° 0 mm 1 mps 753 mmHg 78%
    06:00 +9°C° 0 mm 1 mps 753 mmHg 71%
    07:00 +11°C° 0 mm 1 mps 753 mmHg 65%
    08:00 +13°C° 0 mm 2 mps 753 mmHg 59%
    09:00 +14°C° 0 mm 2 mps 753 mmHg 55%
    10:00 +16°C° 0 mm 2 mps 753 mmHg 50%
    11:00 +17°C° 0 mm 2 mps 753 mmHg 46%
    12:00 +18°C° 0 mm 2 mps 753 mmHg 48%
    13:00 +19°C° 0 mm 2 mps 752 mmHg 50%
    14:00 +20°C° 0 mm 2 mps 752 mmHg 51%
    15:00 +19°C° 0 mm 2 mps 752 mmHg 56%
    16:00 +19°C° 0 mm 2 mps 751 mmHg 61%
    17:00 +19°C° 0 mm 2 mps 751 mmHg 67%
    18:00 +17°C° 0 mm 2 mps 751 mmHg 71%
    19:00 +15°C° 0 mm 2 mps 751 mmHg 76%
    20:00 +14°C° 0 mm 2 mps 751 mmHg 81%
    21:00 +13°C° 0 mm 2 mps 751 mmHg 84%
    22:00 +13°C° 0 mm 2 mps 751 mmHg 86%
    23:00 +12°C° 0 mm 2 mps 751 mmHg 89%

    30 August, Friday

    Time Temperature Precipitation Wind Pressure Humidity
    00:00 +12°C° 0 mm 2 mps 751 mmHg 90%
    01:00 +12°C° 0 mm 1 mps 751 mmHg 91%
    02:00 +12°C° 0 mm 1 mps 751 mmHg 93%
    03:00 +11°C° 0 mm 1 mps 751 mmHg 93%
    04:00 +11°C° 0 mm 1 mps 751 mmHg 94%
    05:00 +11°C° 0 mm 1 mps 751 mmHg 94%
    06:00 +13°C° 0 mm 1 mps 751 mmHg 89%
    07:00 +14°C° 0 mm 1 mps 751 mmHg 84%
    08:00 +16°C° 0 mm 1 mps 751 mmHg 78%
    09:00 +18°C° 0 mm 1 mps 751 mmHg 74%
    10:00 +20°C° 0 mm 1 mps 751 mmHg 70%
    11:00 +21°C° 0 mm 1 mps 751 mmHg 66%
    12:00 +20°C° 0.5 mm 2 mps 751 mmHg 68%
    13:00 +20°C° 0.5 mm 2 mps 751 mmHg 71%
    14:00 +20°C° 0.5 mm 2 mps 750 mmHg 74%
    15:00 +19°C° 0.3 mm 2 mps 750 mmHg 77%
    16:00 +20°C° 0.3 mm 1 mps 750 mmHg 81%
    17:00 +19°C° 0.3 mm 1 mps 750 mmHg 84%
    18:00 +18°C° 0 mm 1 mps 750 mmHg 86%
    19:00 +16°C° 0 mm 1 mps 750 mmHg 88%
    20:00 +15°C° 0 mm 1 mps 750 mmHg 91%
    21:00 +14°C° 0 mm 1 mps 750 mmHg 91%
    22:00 +14°C° 0 mm 1 mps 750 mmHg 91%
    23:00 +13°C° 0 mm 0 mps 750 mmHg 92%

    31 August, Saturday

    Time Temperature Precipitation Wind Pressure Humidity
    00:00 +12°C° 0 mm 0 mps 750 mmHg 92%
    01:00 +13°C° 0 mm 1 mps 751 mmHg 92%
    02:00 +13°C° 0 mm 1 mps 751 mmHg 93%
    03:00 +13°C° 0 mm 1 mps 751 mmHg 93%
    04:00 +12°C° 0 mm 1 mps 750 mmHg 93%
    05:00 +11°C° 0 mm 0 mps 750 mmHg 93%
    06:00 +14°C° 0 mm 1 mps 750 mmHg 88%
    07:00 +16°C° 0 mm 1 mps 750 mmHg 84%
    08:00 +18°C° 0 mm 1 mps 751 mmHg 79%
    09:00 +20°C° 0 mm 1 mps 751 mmHg 73%
    10:00 +21°C° 0 mm 1 mps 751 mmHg 66%
    11:00 +22°C° 0 mm 1 mps 751 mmHg 60%
    12:00 +23°C° 0 mm 1 mps 750 mmHg 59%
    13:00 +23°C° 0 mm 2 mps 750 mmHg 58%
    14:00 +23°C° 0 mm 2 mps 750 mmHg 57%
    15:00 +23°C° 0 mm 2 mps 750 mmHg 62%
    16:00 +22°C° 0 mm 1 mps 749 mmHg 67%
    17:00 +21°C° 0 mm 1 mps 749 mmHg 71%
    18:00 +20°C° 0 mm 1 mps 749 mmHg 75%
    19:00 +19°C° 0 mm 1 mps 749 mmHg 78%
    20:00 +16°C° 0 mm 1 mps 749 mmHg 81%
    21:00 +16°C° 0 mm 1 mps 749 mmHg 82%
    22:00 +16°C° 0 mm 1 mps 749 mmHg 83%
    23:00 +15°C° 0 mm 1 mps 749 mmHg 85%
    Show more